Middletown, RI

1:23 PM EST on February 07, 2016 (GMT -0500)
Newport State

Weather History for KUUU - October, 2012

Change the Weather History Date:

Monday, October 22, 2012

  Actual Average Record
Temperature  
Mean Temperature 58 °F -  
Max Temperature 64 °F 61 °F 79 °F (1979)
Min Temperature 52 °F 44 °F 32 °F (1974)
Degree Days  
Heating Degree Days 7    
Growing Degree Days 8 (Base 50)    
Moisture  
Dew Point 42 °F    
Average Humidity 57    
Maximum Humidity 67    
Minimum Humidity 45    
Precipitation  
Precipitation 0.00 in - - ()
Sea Level Pressure  
Sea Level Pressure 29.95 in    
Wind  
Wind Speed 8 mph (WNW)    
Max Wind Speed 18 mph    
Max Gust Speed 25 mph    
Visibility 10 miles    
Events      
Averages and records for this station are not official NWS values.
T = Trace of Precipitation, MM = Missing Value Source: NWS Daily Summary

Daily Weather History Graph

Daily Weather History Graph

Search for Another Location

Airport or City:

Trip Planner

Search our weather history database for the weather conditions in past years. The results will help you decide how hot, cold, wet, or windy it might be!

Date:

Astronomy

Oct. 22, 2012 Rise Set
Actual Time 7:05 AM EDT 5:52 PM EDT
Civil Twilight 6:37 AM EDT 6:21 PM EDT
Nautical Twilight 6:04 AM EDT 6:53 PM EDT
Astronomical Twilight 5:32 AM EDT 7:25 PM EDT
Moon 2:03 PM EDT (10/22) No Moon Set
Length of Visible Light 11h 43m
Length of Day
10h 47m
First Quarter, 56% of the Moon is Illuminated
Oct 22
First Quarter
Oct 29
Full
Nov 6
Last Quarter
Nov 13
New
Nov 20
First Quarter

Hourly Weather History & Observations

Time (EDT) Temp. Dew Point Humidity Pressure Visibility Wind Dir Wind Speed Gust Speed Precip Events Conditions
12:53 AM 53.1 °F 39.9 °F 61% 29.93 in 10.0 mi Variable 4.6 mph - N/A   Clear
1:53 AM 52.0 °F 41.0 °F 66% 29.92 in 10.0 mi West 6.9 mph - N/A   Clear
2:53 AM 54.0 °F 39.9 °F 59% 29.91 in 10.0 mi Variable 6.9 mph - N/A   Clear
3:53 AM 53.1 °F 39.9 °F 61% 29.93 in 10.0 mi West 6.9 mph 17.3 mph N/A   Clear
4:53 AM 52.0 °F 41.0 °F 66% 29.93 in 10.0 mi Variable 4.6 mph - N/A   Clear
5:53 AM 52.0 °F 41.0 °F 66% 29.94 in 10.0 mi West 10.4 mph 18.4 mph N/A   Clear
6:53 AM 52.0 °F 41.0 °F 66% 29.95 in 10.0 mi West 11.5 mph 17.3 mph N/A   Clear
7:53 AM 53.1 °F 42.1 °F 66% 29.97 in 10.0 mi West 8.1 mph 23.0 mph N/A   Clear
8:53 AM 55.0 °F 42.1 °F 62% 29.98 in 10.0 mi West 13.8 mph 21.9 mph N/A   Clear
10:53 AM 60.1 °F 43.0 °F 53% 29.97 in 10.0 mi WNW 11.5 mph 19.6 mph N/A   Clear
11:53 AM 61.0 °F 42.1 °F 50% 29.96 in 10.0 mi WNW 18.4 mph 25.3 mph N/A   Clear
12:53 PM 62.1 °F 42.1 °F 48% 29.94 in 10.0 mi WNW 11.5 mph 21.9 mph N/A   Clear
1:53 PM 64.0 °F 42.1 °F 45% 29.92 in 10.0 mi WNW 12.7 mph 20.7 mph N/A   Clear
2:53 PM 64.0 °F 42.1 °F 45% 29.91 in 10.0 mi WNW 15.0 mph 21.9 mph N/A   Clear
3:53 PM 64.0 °F 42.1 °F 45% 29.92 in 10.0 mi WNW 9.2 mph 20.7 mph N/A   Clear
4:53 PM 63.0 °F 41.0 °F 45% 29.93 in 10.0 mi WNW 6.9 mph 16.1 mph N/A   Clear
5:53 PM 61.0 °F 41.0 °F 48% 29.94 in 10.0 mi WNW 4.6 mph - N/A   Clear
6:53 PM 59.0 °F 42.1 °F 53% 29.96 in 10.0 mi WNW 4.6 mph - N/A   Clear
7:53 PM 57.0 °F 42.1 °F 57% 29.97 in 10.0 mi WNW 4.6 mph - N/A   Clear
8:53 PM 57.0 °F 43.0 °F 59% 29.99 in 10.0 mi West 4.6 mph - N/A   Clear
9:53 PM 57.0 °F 43.0 °F 59% 29.99 in 10.0 mi WNW 4.6 mph - N/A   Clear
10:53 PM 55.9 °F 43.0 °F 62% 30.00 in 10.0 mi WNW 3.5 mph - N/A   Clear
11:53 PM 55.0 °F 44.1 °F 67% 30.01 in 10.0 mi WNW 5.8 mph - N/A   Clear